���t,�j��,����,,�ŏI�X�V��,2023/3/31�@9:00
2020/2/12,��,26,,,
2020/2/13,��,47,,,
2020/2/14,��,86,,,
2020/2/15,�y,25,,,
2020/2/16,��,20,,,
2020/2/17,��,166,,,
2020/2/18,��,150,,,
2020/2/19,��,147,,,
2020/2/20,��,148,,,
2020/2/21,��,130,,,
2020/2/22,�y,58,,,
2020/2/23,��,56,,,
2020/2/24,��,61,,,
2020/2/25,��,300,,,
2020/2/26,��,271,,,
2020/2/27,��,243,,,
2020/2/28,��,221,,,
2020/2/29,�y,104,,,
2020/3/1,��,81,,,
2020/3/2,��,268,,,
2020/3/3,��,261,,,
2020/3/4,��,257,,,
2020/3/5,��,225,,,
2020/3/6,��,251,,,
2020/3/7,�y,123,,,
2020/3/8,��,231,,,
2020/3/9,��,654,,,
2020/3/10,��,436,,,
2020/3/11,��,342,,,
2020/3/12,��,313,,,
2020/3/13,��,406,,,
2020/3/14,�y,158,,,
2020/3/15,��,215,,,
2020/3/16,��,618,,,
2020/3/17,��,509,,,
2020/3/18,��,354,,,
2020/3/19,��,377,,,
2020/3/20,��,118,,,
2020/3/21,�y,100,,,
2020/3/22,��,73,,,
2020/3/23,��,398,,,
2020/3/24,��,301,,,
2020/3/25,��,399,,,
2020/3/26,��,386,,,
2020/3/27,��,486,,,
2020/3/28,�y,201,,,
2020/3/29,��,158,,,
2020/3/30,��,796,,,
2020/3/31,��,653,,,
2020/4/1,��,927,,,
2020/4/2,��,798,,,
2020/4/3,��,755,,,
2020/4/4,�y,381,,,
2020/4/5,��,247,,,
2020/4/6,��,1104,,,
2020/4/7,��,806,,,
2020/4/8,��,832,,,
2020/4/9,��,773,,,
2020/4/10,��,851,,,
2020/4/11,�y,412,,,
2020/4/12,��,470,,,
2020/4/13,��,1245,,,
2020/4/14,��,1028,,,
2020/4/15,��,953,,,
2020/4/16,��,951,,,
2020/4/17,��,910,,,
2020/4/18,�y,484,,,
2020/4/19,��,464,,,
2020/4/20,��,1035,,,
2020/4/21,��,779,,,
2020/4/22,��,760,,,
2020/4/23,��,665,,,
2020/4/24,��,805,,,
2020/4/25,�y,353,,,
2020/4/26,��,314,,,
2020/4/27,��,695,,,
2020/4/28,��,595,,,
2020/4/29,��,345,,,
2020/4/30,��,604,,,
2020/5/1,��,502,,,
2020/5/2,�y,320,,,
2020/5/3,��,275,,,
2020/5/4,��,335,,,
2020/5/5,��,286,,,
2020/5/6,��,326,,,
2020/5/7,��,508,,,
2020/5/8,��,334,,,
2020/5/9,�y,260,,,
2020/5/10,��,208,,,
2020/5/11,��,421,,,
2020/5/12,��,278,,,
2020/5/13,��,317,,,
2020/5/14,��,317,,,
2020/5/15,��,260,,,
2020/5/16,�y,164,,,
2020/5/17,��,98,,,
2020/5/18,��,328,,,
2020/5/19,��,190,,,
2020/5/20,��,179,,,
2020/5/21,��,138,,,
2020/5/22,��,156,,,
2020/5/23,�y,131,,,
2020/5/24,��,110,,,
2020/5/25,��,241,,,
2020/5/26,��,171,,,
2020/5/27,��,166,,,
2020/5/28,��,146,,,
2020/5/29,��,166,,,
2020/5/30,�y,146,,,
2020/5/31,��,105,,,
2020/6/1,��,204,,,
2020/6/2,��,203,,,
2020/6/3,��,205,,,
2020/6/4,��,229,,,
2020/6/5,��,225,,,
2020/6/6,�y,168,,,
2020/6/7,��,141,,,
2020/6/8,��,291,,,
2020/6/9,��,198,,,
2020/6/10,��,205,,,
2020/6/11,��,182,,,
2020/6/12,��,161,,,
2020/6/13,�y,103,,,
2020/6/14,��,104,,,
2020/6/15,��,205,,,
2020/6/16,��,185,,,
2020/6/17,��,138,,,
2020/6/18,��,158,,,
2020/6/19,��,106,,,
2020/6/20,�y,89,,,
2020/6/21,��,78,,,
2020/6/22,��,148,,,
2020/6/23,��,107,,,
2020/6/24,��,149,,,
2020/6/25,��,243,,,
2020/6/26,��,199,,,
2020/6/27,�y,145,,,
2020/6/28,��,107,,,
2020/6/29,��,224,,,
2020/6/30,��,179,,,
2020/7/1,��,233,,,
2020/7/2,��,214,,,
2020/7/3,��,180,,,
2020/7/4,�y,155,,,
2020/7/5,��,133,,,
2020/7/6,��,315,,,
2020/7/7,��,278,,,
2020/7/8,��,227,,,
2020/7/9,��,210,,,
2020/7/10,��,253,,,
2020/7/11,�y,184,,,
2020/7/12,��,110,,,
2020/7/13,��,315,,,
2020/7/14,��,344,,,
2020/7/15,��,262,,,
2020/7/16,��,447,,,
2020/7/17,��,421,,,
2020/7/18,�y,273,,,
2020/7/19,��,203,,,
2020/7/20,��,435,,,
2020/7/21,��,290,,,
2020/7/22,��,422,,,
2020/7/23,��,281,,,
2020/7/24,��,245,,,
2020/7/25,�y,263,,,
2020/7/26,��,244,,,
2020/7/27,��,525,,,
2020/7/28,��,348,,,
2020/7/29,��,377,,,
2020/7/30,��,398,,,
2020/7/31,��,456,,,
2020/8/1,�y,275,,,
2020/8/2,��,194,,,
2020/8/3,��,461,,,
2020/8/4,��,376,,,
2020/8/5,��,463,,,
2020/8/6,��,385,,,
2020/8/7,��,432,,,
2020/8/8,�y,355,,,
2020/8/9,��,229,,,
2020/8/10,��,269,,,
2020/8/11,��,497,,,
2020/8/12,��,304,,,
2020/8/13,��,283,,,
2020/8/14,��,393,,,
2020/8/15,�y,340,,,
2020/8/16,��,322,,,
2020/8/17,��,740,,,
2020/8/18,��,445,,,
2020/8/19,��,388,,,
2020/8/20,��,393,,,
2020/8/21,��,393,,,
2020/8/22,�y,216,,,
2020/8/23,��,180,,,
2020/8/24,��,419,,,
2020/8/25,��,387,,,
2020/8/26,��,413,,,
2020/8/27,��,373,,,
2020/8/28,��,378,,,
2020/8/29,�y,204,,,
2020/8/30,��,150,,,
2020/8/31,��,383,,,
2020/9/1,��,290,,,
2020/9/2,��,303,,,
2020/9/3,��,276,,,
2020/9/4,��,294,,,
2020/9/5,�y,181,,,
2020/9/6,��,178,,,
2020/9/7,��,378,,,
2020/9/8,��,268,,,
2020/9/9,��,282,,,
2020/9/10,��,304,,,
2020/9/11,��,221,,,
2020/9/12,�y,184,,,
2020/9/13,��,173,,,
2020/9/14,��,446,,,
2020/9/15,��,325,,,
2020/9/16,��,333,,,
2020/9/17,��,334,,,
2020/9/18,��,328,,,
2020/9/19,�y,211,,,
2020/9/20,��,210,,,
2020/9/21,��,265,,,
2020/9/22,��,218,,,
2020/9/23,��,466,,,
2020/9/24,��,258,,,
2020/9/25,��,253,,,
2020/9/26,�y,146,,,
2020/9/27,��,147,,,
2020/9/28,��,307,,,
2020/9/29,��,181,,,
2020/9/30,��,173,,,
2020/10/1,��,195,,,
2020/10/2,��,218,,,
2020/10/3,�y,147,,,
2020/10/4,��,109,,,
2020/10/5,��,278,,,
2020/10/6,��,203,,,
2020/10/7,��,193,,,
2020/10/8,��,196,,,
2020/10/9,��,189,,,
2020/10/10,�y,89,,,
2020/10/11,��,139,,,
2020/10/12,��,275,,,
2020/10/13,��,192,,,
2020/10/14,��,187,,,
2020/10/15,��,141,,,
2020/10/16,��,147,,,
2020/10/17,�y,111,,,
2020/10/18,��,100,,,
2020/10/19,��,220,,,
2020/10/20,��,167,,,
2020/10/21,��,196,,,
2020/10/22,��,172,,,
2020/10/23,��,235,,,
2020/10/24,�y,134,,,
2020/10/25,��,108,,,
2020/10/26,��,231,,,
2020/10/27,��,164,,,
2020/10/28,��,214,,,
2020/10/29,��,172,,,
2020/10/30,��,127,,,
2020/10/31,�y,121,,,
2020/11/1,��,97,,,
2020/11/2,��,211,,,
2020/11/3,��,134,,,
2020/11/4,��,202,,,
2020/11/5,��,177,,,
2020/11/6,��,162,,,
2020/11/7,�y,113,,,
2020/11/8,��,76,,,
2020/11/9,��,197,,,
2020/11/10,��,156,,,
2020/11/11,��,170,,,
2020/11/12,��,166,,,
2020/11/13,��,174,,,
2020/11/14,�y,113,,,
2020/11/15,��,115,,,
2020/11/16,��,267,,,
2020/11/17,��,197,,,
2020/11/18,��,201,,,
2020/11/19,��,299,,,
2020/11/20,��,319,,,
2020/11/21,�y,198,,,
2020/11/22,��,141,,,
2020/11/23,��,175,,,
2020/11/24,��,386,,,
2020/11/25,��,303,,,
2020/11/26,��,324,,,
2020/11/27,��,282,,,
2020/11/28,�y,196,,,
2020/11/29,��,112,,,
2020/11/30,��,436,,,
2020/12/1,��,283,,,
2020/12/2,��,303,,,
2020/12/3,��,302,,,
2020/12/4,��,315,,,
2020/12/5,�y,203,,,
2020/12/6,��,171,,,
2020/12/7,��,488,,,
2020/12/8,��,352,,,
2020/12/9,��,404,,,
2020/12/10,��,365,,,
2020/12/11,��,305,,,
2020/12/12,�y,234,,,
2020/12/13,��,207,,,
2020/12/14,��,472,,,
2020/12/15,��,366,,,
2020/12/16,��,329,,,
2020/12/17,��,387,,,
2020/12/18,��,357,,,
2020/12/19,�y,234,,,
2020/12/20,��,191,,,
2020/12/21,��,474,,,
2020/12/22,��,364,,,
2020/12/23,��,421,,,
2020/12/24,��,397,,,
2020/12/25,��,341,,,
2020/12/26,�y,208,,,
2020/12/27,��,182,,,
2020/12/28,��,508,,,
2020/12/29,��,326,,,
2020/12/30,��,316,,,
2020/12/31,��,232,,,
2021/1/1,��,231,,,
2021/1/2,�y,294,,,
2021/1/3,��,312,,,
2021/1/4,��,550,,,
2021/1/5,��,451,,,
2021/1/6,��,510,,,
2021/1/7,��,489,,,
2021/1/8,��,570,,,
2021/1/9,�y,354,,,
2021/1/10,��,302,,,
2021/1/11,��,309,,,
2021/1/12,��,674,,,
2021/1/13,��,414,,,
2021/1/14,��,482,,,
2021/1/15,��,478,,,
2021/1/16,�y,291,,,
2021/1/17,��,193,,,
2021/1/18,��,566,,,
2021/1/19,��,433,,,
2021/1/20,��,420,,,
2021/1/21,��,472,,,
2021/1/22,��,401,,,
2021/1/23,�y,242,,,
2021/1/24,��,183,,,
2021/1/25,��,465,,,
2021/1/26,��,308,,,
2021/1/27,��,340,,,
2021/1/28,��,313,,,
2021/1/29,��,314,,,
2021/1/30,�y,211,,,
2021/1/31,��,218,,,
2021/2/1,��,393,,,
2021/2/2,��,306,,,
2021/2/3,��,268,,,
2021/2/4,��,223,,,
2021/2/5,��,288,,,
2021/2/6,�y,181,,,
2021/2/7,��,140,,,
2021/2/8,��,285,,,
2021/2/9,��,190,,,
2021/2/10,��,208,,,
2021/2/11,��,132,,,
2021/2/12,��,227,,,
2021/2/13,�y,113,,,
2021/2/14,��,140,,,
2021/2/15,��,207,,,
2021/2/16,��,151,,,
2021/2/17,��,174,,,
2021/2/18,��,160,,,
2021/2/19,��,133,,,
2021/2/20,�y,126,,,
2021/2/21,��,100,,,
2021/2/22,��,226,,,
2021/2/23,��,135,,,
2021/2/24,��,196,,,
2021/2/25,��,169,,,
2021/2/26,��,127,,,
2021/2/27,�y,106,,,
2021/2/28,��,78,,,
2021/3/1,��,197,,,
2021/3/2,��,136,,,
2021/3/3,��,134,,,
2021/3/4,��,130,,,
2021/3/5,��,144,,,
2021/3/6,�y,118,,,
2021/3/7,��,87,,,
2021/3/8,��,175,,,
2021/3/9,��,171,,,
2021/3/10,��,122,,,
2021/3/11,��,126,,,
2021/3/12,��,156,,,
2021/3/13,�y,113,,,
2021/3/14,��,92,,,
2021/3/15,��,206,,,
2021/3/16,��,186,,,
2021/3/17,��,183,,,
2021/3/18,��,190,,,
2021/3/19,��,195,,,
2021/3/20,�y,148,,,
2021/3/21,��,131,,,
2021/3/22,��,248,,,
2021/3/23,��,135,,,
2021/3/24,��,118,,,
2021/3/25,��,149,,,
2021/3/26,��,157,,,
2021/3/27,�y,112,,,
2021/3/28,��,100,,,
2021/3/29,��,221,,,
2021/3/30,��,168,,,
2021/3/31,��,189,,,
2021/4/1,��,145,,,
2021/4/2,��,125,,,
2021/4/3,�y,155,,,
2021/4/4,��,116,,,
2021/4/5,��,247,,,
2021/4/6,��,238,,,
2021/4/7,��,168,,,
2021/4/8,��,176,,,
2021/4/9,��,198,,,
2021/4/10,�y,141,,,
2021/4/11,��,101,,,
2021/4/12,��,243,,,
2021/4/13,��,247,,,
2021/4/14,��,220,,,
2021/4/15,��,229,,,
2021/4/16,��,188,,,
2021/4/17,�y,150,,,
2021/4/18,��,124,,,
2021/4/19,��,285,,,
2021/4/20,��,330,,,
2021/4/21,��,283,,,
2021/4/22,��,283,,,
2021/4/23,��,294,,,
2021/4/24,�y,179,,,
2021/4/25,��,166,,,
2021/4/26,��,352,,,
2021/4/27,��,339,,,
2021/4/28,��,345,,,
2021/4/29,��,220,,,
2021/4/30,��,455,,,
2021/5/1,�y,238,,,
2021/5/2,��,294,,,
2021/5/3,��,285,,,
2021/5/4,��,282,,,
2021/5/5,��,348,,,
2021/5/6,��,766,,,
2021/5/7,��,416,,,
2021/5/8,�y,315,,,
2021/5/9,��,283,,,
2021/5/10,��,592,,,
2021/5/11,��,455,,,
2021/5/12,��,362,,,
2021/5/13,��,301,,,
2021/5/14,��,371,,,
2021/5/15,�y,250,,,
2021/5/16,��,230,,,
2021/5/17,��,472,,,
2021/5/18,��,348,,,
2021/5/19,��,332,,,
2021/5/20,��,316,,,
2021/5/21,��,271,,,
2021/5/22,�y,222,,,
2021/5/23,��,165,,,
2021/5/24,��,419,,,
2021/5/25,��,251,,,
2021/5/26,��,259,,,
2021/5/27,��,234,,,
2021/5/28,��,474,,,
2021/5/29,�y,157,,,
2021/5/30,��,140,,,
2021/5/31,��,246,,,
2021/6/1,��,225,,,
2021/6/2,��,215,,,
2021/6/3,��,204,,,
2021/6/4,��,183,,,
2021/6/5,�y,130,,,
2021/6/6,��,131,,,
2021/6/7,��,241,,,
2021/6/8,��,188,,,
2021/6/9,��,143,,,
2021/6/10,��,165,,,
2021/6/11,��,149,,,
2021/6/12,�y,141,,,
2021/6/13,��,154,,,
2021/6/14,��,189,,,
2021/6/15,��,134,,,
2021/6/16,��,145,,,
2021/6/17,��,137,,,
2021/6/18,��,119,,,
2021/6/19,�y,119,,,
2021/6/20,��,100,,,
2021/6/21,��,141,,,
2021/6/22,��,116,,,
2021/6/23,��,109,,,
2021/6/24,��,98,,,
2021/6/25,��,79,,,
2021/6/26,�y,102,,,
2021/6/27,��,84,,,
2021/6/28,��,136,,,
2021/6/29,��,104,,,
2021/6/30,��,107,,,
2021/7/1,��,108,,,
2021/7/2,��,125,,,
2021/7/3,�y,87,,,
2021/7/4,��,96,,,
2021/7/5,��,138,,,
2021/7/6,��,111,,,
2021/7/7,��,117,,,
2021/7/8,��,127,,,
2021/7/9,��,137,,,
2021/7/10,�y,126,,,
2021/7/11,��,97,,,
2021/7/12,��,165,,,
2021/7/13,��,145,,,
2021/7/14,��,160,,,
2021/7/15,��,149,,,
2021/7/16,��,144,,,
2021/7/17,�y,134,,,
2021/7/18,��,126,,,
2021/7/19,��,175,,,
2021/7/20,��,188,,,
2021/7/21,��,245,,,
2021/7/22,��,194,,,
2021/7/23,��,162,,,
2021/7/24,�y,168,,,
2021/7/25,��,157,,,
2021/7/26,��,368,,,
2021/7/27,��,358,,,
2021/7/28,��,367,,,
2021/7/29,��,331,,,
2021/7/30,��,404,,,
2021/7/31,�y,316,,,
2021/8/1,��,305,,,
2021/8/2,��,687,,,
2021/8/3,��,493,,,
2021/8/4,��,559,,,
2021/8/5,��,568,,,
2021/8/6,��,582,,,
2021/8/7,�y,380,,,
2021/8/8,��,409,,,
2021/8/9,��,398,,,
2021/8/10,��,650,,,
2021/8/11,��,526,,,
2021/8/12,��,533,,,
2021/8/13,��,586,,,
2021/8/14,�y,458,,,
2021/8/15,��,459,,,
2021/8/16,��,781,,,
2021/8/17,��,699,,,
2021/8/18,��,749,,,
2021/8/19,��,719,,,
2021/8/20,��,718,,,
2021/8/21,�y,507,,,
2021/8/22,��,544,,,
2021/8/23,��,788,,,
2021/8/24,��,677,,,
2021/8/25,��,713,,,
2021/8/26,��,627,,,
2021/8/27,��,617,,,
2021/8/28,�y,475,,,
2021/8/29,��,401,,,
2021/8/30,��,649,,,
2021/8/31,��,449,,,
2021/9/1,��,389,,,
2021/9/2,��,380,,,
2021/9/3,��,405,,,
2021/9/4,�y,259,,,
2021/9/5,��,261,,,
2021/9/6,��,544,,,
2021/9/7,��,302,,,
2021/9/8,��,293,,,
2021/9/9,��,307,,,
2021/9/10,��,256,,,
2021/9/11,�y,214,,,
2021/9/12,��,215,,,
2021/9/13,��,325,,,
2021/9/14,��,239,,,
2021/9/15,��,240,,,
2021/9/16,��,219,,,
2021/9/17,��,169,,,
2021/9/18,�y,179,,,
2021/9/19,��,155,,,
2021/9/20,��,169,,,
2021/9/21,��,286,,,
2021/9/22,��,213,,,
2021/9/23,��,177,,,
2021/9/24,��,203,,,
2021/9/25,�y,114,,,
2021/9/26,��,109,,,
2021/9/27,��,215,,,
2021/9/28,��,165,,,
2021/9/29,��,150,,,
2021/9/30,��,155,,,
2021/10/1,��,131,,,
2021/10/2,�y,88,,,
2021/10/3,��,100,,,
2021/10/4,��,180,,,
2021/10/5,��,134,,,
2021/10/6,��,117,,,
2021/10/7,��,132,,,
2021/10/8,��,96,,,
2021/10/9,�y,98,,,
2021/10/10,��,99,,,
2021/10/11,��,145,,,
2021/10/12,��,129,,,
2021/10/13,��,91,,,
2021/10/14,��,104,,,
2021/10/15,��,111,,,
2021/10/16,�y,99,,,
2021/10/17,��,67,,,
2021/10/18,��,125,,,
2021/10/19,��,92,,,
2021/10/20,��,92,,,
2021/10/21,��,100,,,
2021/10/22,��,77,,,
2021/10/23,�y,73,,,
2021/10/24,��,52,,,
2021/10/25,��,114,,,
2021/10/26,��,118,,,
2021/10/27,��,87,,,
2021/10/28,��,94,,,
2021/10/29,��,84,,,
2021/10/30,�y,80,,,
2021/10/31,��,54,,,
2021/11/1,��,86,,,
2021/11/2,��,68,,,
2021/11/3,��,57,,,
2021/11/4,��,68,,,
2021/11/5,��,75,,,
2021/11/6,�y,57,,,
2021/11/7,��,83,,,
2021/11/8,��,119,,,
2021/11/9,��,76,,,
2021/11/10,��,81,,,
2021/11/11,��,83,,,
2021/11/12,��,63,,,
2021/11/13,�y,55,,,
2021/11/14,��,65,,,
2021/11/15,��,87,,,
2021/11/16,��,80,,,
2021/11/17,��,61,,,
2021/11/18,��,69,,,
2021/11/19,��,53,,,
2021/11/20,�y,48,,,
2021/11/21,��,52,,,
2021/11/22,��,80,,,
2021/11/23,��,43,,,
2021/11/24,��,90,,,
2021/11/25,��,61,,,
2021/11/26,��,77,,,
2021/11/27,�y,37,,,
2021/11/28,��,60,,,
2021/11/29,��,104,,,
2021/11/30,��,79,,,
2021/12/1,��,84,,,
2021/12/2,��,98,,,
2021/12/3,��,109,,,
2021/12/4,�y,50,,,
2021/12/5,��,70,,,
2021/12/6,��,163,,,
2021/12/7,��,137,,,
2021/12/8,��,128,,,
2021/12/9,��,91,,,
2021/12/10,��,109,,,
2021/12/11,�y,51,,,
2021/12/12,��,72,,,
2021/12/13,��,162,,,
2021/12/14,��,147,,,
2021/12/15,��,145,,,
2021/12/16,��,157,,,
2021/12/17,��,175,,,
2021/12/18,�y,93,,,
2021/12/19,��,73,,,
2021/12/20,��,184,,,
2021/12/21,��,158,,,
2021/12/22,��,114,,,
2021/12/23,��,146,,,
2021/12/24,��,98,,,
2021/12/25,�y,80,,,
2021/12/26,��,92,,,
2021/12/27,��,192,,,
2021/12/28,��,158,,,
2021/12/29,��,148,,,
2021/12/30,��,140,,,
2021/12/31,��,151,,,
2022/1/1,�y,95,,,
2022/1/2,��,158,,,
2022/1/3,��,122,,,
2022/1/4,��,268,,,
2022/1/5,��,301,,,
2022/1/6,��,284,,,
2022/1/7,��,324,,,
2022/1/8,�y,297,,,
2022/1/9,��,310,,,
2022/1/10,��,296,,,
2022/1/11,��,657,,,
2022/1/12,��,491,,,
2022/1/13,��,670,,,
2022/1/14,��,521,,,
2022/1/15,�y,380,,,
2022/1/16,��,406,,,
2022/1/17,��,1075,,,
2022/1/18,��,949,,,
2022/1/19,��,856,,,
2022/1/20,��,745,,,
2022/1/21,��,753,,,
2022/1/22,�y,477,,,
2022/1/23,��,629,,,
2022/1/24,��,1620,,,
2022/1/25,��,1103,,,
2022/1/26,��,921,,,
2022/1/27,��,1210,,,
2022/1/28,��,878,,,
2022/1/29,�y,526,,,
2022/1/30,��,661,,,
2022/1/31,��,1122,,,
2022/2/1,��,721,,,
2022/2/2,��,627,,,
2022/2/3,��,868,,,
2022/2/4,��,711,,,
2022/2/5,�y,526,,,
2022/2/6,��,483,,,
2022/2/7,��,771,,,
2022/2/8,��,571,,,
2022/2/9,��,603,,,
2022/2/10,��,541,,,
2022/2/11,��,527,,,
2022/2/12,�y,467,,,
2022/2/13,��,461,,,
2022/2/14,��,875,,,
2022/2/15,��,516,,,
2022/2/16,��,611,,,
2022/2/17,��,616,,,
2022/2/18,��,510,,,
2022/2/19,�y,403,,,
2022/2/20,��,443,,,
2022/2/21,��,723,,,
2022/2/22,��,606,,,
2022/2/23,��,427,,,
2022/2/24,��,684,,,
2022/2/25,��,615,,,
2022/2/26,�y,409,,,
2022/2/27,��,331,,,
2022/2/28,��,720,,,
2022/3/1,��,559,,,
2022/3/2,��,601,,,
2022/3/3,��,483,,,
2022/3/4,��,490,,,
2022/3/5,�y,365,,,
2022/3/6,��,346,,,
2022/3/7,��,569,,,
2022/3/8,��,534,,,
2022/3/9,��,531,,,
2022/3/10,��,485,,,
2022/3/11,��,496,,,
2022/3/12,�y,350,,,
2022/3/13,��,351,,,
2022/3/14,��,592,,,
2022/3/15,��,524,,,
2022/3/16,��,547,,,
2022/3/17,��,478,,,
2022/3/18,��,374,,,
2022/3/19,�y,329,,,
2022/3/20,��,365,,,
2022/3/21,��,371,,,
2022/3/22,��,648,,,
2022/3/23,��,415,,,
2022/3/24,��,428,,,
2022/3/25,��,349,,,
2022/3/26,�y,325,,,
2022/3/27,��,358,,,
2022/3/28,��,545,,,
2022/3/29,��,432,,,
2022/3/30,��,490,,,
2022/3/31,��,394,,,
2022/4/1,��,384,,,
2022/4/2,�y,270,,,
2022/4/3,��,339,,,
2022/4/4,��,476,,,
2022/4/5,��,315,,,
2022/4/6,��,395,,,
2022/4/7,��,405,,,
2022/4/8,��,326,,,
2022/4/9,�y,281,,,
2022/4/10,��,318,,,
2022/4/11,��,457,,,
2022/4/12,��,368,,,
2022/4/13,��,368,,,
2022/4/14,��,325,,,
2022/4/15,��,308,,,
2022/4/16,�y,254,,,
2022/4/17,��,248,,,
2022/4/18,��,353,,,
2022/4/19,��,333,,,
2022/4/20,��,336,,,
2022/4/21,��,344,,,
2022/4/22,��,274,,,
2022/4/23,�y,317,,,
2022/4/24,��,287,,,
2022/4/25,��,395,,,
2022/4/26,��,361,,,
2022/4/27,��,324,,,
2022/4/28,��,293,,,
2022/4/29,��,222,,,
2022/4/30,�y,191,,,
2022/5/1,��,252,,,
2022/5/2,��,431,,,
2022/5/3,��,265,,,
2022/5/4,��,296,,,
2022/5/5,��,322,,,
2022/5/6,��,532,,,
2022/5/7,�y,282,,,
2022/5/8,��,300,,,
2022/5/9,��,389,,,
2022/5/10,��,293,,,
2022/5/11,��,285,,,
2022/5/12,��,274,,,
2022/5/13,��,276,,,
2022/5/14,�y,260,,,
2022/5/15,��,273,,,
2022/5/16,��,379,,,
2022/5/17,��,279,,,
2022/5/18,��,261,,,
2022/5/19,��,302,,,
2022/5/20,��,277,,,
2022/5/21,�y,216,,,
2022/5/22,��,188,,,
2022/5/23,��,360,,,
2022/5/24,��,238,,,
2022/5/25,��,238,,,
2022/5/26,��,264,,,
2022/5/27,��,159,,,
2022/5/28,�y,162,,,
2022/5/29,��,154,,,
2022/5/30,��,240,,,
2022/5/31,��,170,,,
2022/6/1,��,205,,,
2022/6/2,��,173,,,
2022/6/3,��,135,,,
2022/6/4,�y,132,,,
2022/6/5,��,124,,,
2022/6/6,��,224,,,
2022/6/7,��,156,,,
2022/6/8,��,151,,,
2022/6/9,��,152,,,
2022/6/10,��,119,,,
2022/6/11,�y,135,,,
2022/6/12,��,113,,,
2022/6/13,��,158,,,
2022/6/14,��,118,,,
2022/6/15,��,146,,,
2022/6/16,��,128,,,
2022/6/17,��,127,,,
2022/6/18,�y,117,,,
2022/6/19,��,131,,,
2022/6/20,��,143,,,
2022/6/21,��,125,,,
2022/6/22,��,145,,,
2022/6/23,��,119,,,
2022/6/24,��,132,,,
2022/6/25,�y,120,,,
2022/6/26,��,83,,,
2022/6/27,��,114,,,
2022/6/28,��,99,,,
2022/6/29,��,136,,,
2022/6/30,��,123,,,
2022/7/1,��,114,,,
2022/7/2,�y,133,,,
2022/7/3,��,166,,,
2022/7/4,��,198,,,
2022/7/5,��,179,,,
2022/7/6,��,211,,,
2022/7/7,��,232,,,
2022/7/8,��,226,,,
2022/7/9,�y,247,,,
2022/7/10,��,294,,,
2022/7/11,��,337,,,
2022/7/12,��,288,,,
2022/7/13,��,336,,,
2022/7/14,��,386,,,
2022/7/15,��,396,,,
2022/7/16,�y,393,,,
2022/7/17,��,470,,,
2022/7/18,��,604,,,
2022/7/19,��,548,,,
2022/7/20,��,583,,,
2022/7/21,��,610,,,
2022/7/22,��,567,,,
2022/7/23,�y,578,,,
2022/7/24,��,570,,,
2022/7/25,��,663,,,
2022/7/26,��,528,,,
2022/7/27,��,562,,,
2022/7/28,��,523,,,
2022/7/29,��,516,,,
2022/7/30,�y,512,,,
2022/7/31,��,292,,,
2022/8/1,��,572,,,
2022/8/2,��,451,,,
2022/8/3,��,530,,,
2022/8/4,��,546,,,
2022/8/5,��,482,,,
2022/8/6,�y,473,,,
2022/8/7,��,527,,,
2022/8/8,��,537,,,
2022/8/9,��,501,,,
2022/8/10,��,523,,,
2022/8/11,��,526,,,
2022/8/12,��,482,,,
2022/8/13,�y,487,,,
2022/8/14,��,525,,,
2022/8/15,��,554,,,
2022/8/16,��,531,,,
2022/8/17,��,665,,,
2022/8/18,��,541,,,
2022/8/19,��,556,,,
2022/8/20,�y,477,,,
2022/8/21,��,463,,,
2022/8/22,��,489,,,
2022/8/23,��,610,,,
2022/8/24,��,491,,,
2022/8/25,��,371,,,
2022/8/26,��,452,,,
2022/8/27,�y,531,,,
2022/8/28,��,437,,,
2022/8/29,��,506,,,
2022/8/30,��,397,,,
2022/8/31,��,367,,,
2022/9/1,��,380,,,
2022/9/2,��,412,,,
2022/9/3,�y,373,,,
2022/9/4,��,433,,,
2022/9/5,��,378,,,
2022/9/6,��,367,,,
2022/9/7,��,351,,,
2022/9/8,��,368,,,
2022/9/9,��,314,,,
2022/9/10,�y,406,,,
2022/9/11,��,382,,,
2022/9/12,��,403,,,
2022/9/13,��,282,,,
2022/9/14,��,327,,,
2022/9/15,��,303,,,
2022/9/16,��,305,,,
2022/9/17,�y,327,,,
2022/9/18,��,339,,,
2022/9/19,��,296,,,
2022/9/20,��,275,,,
2022/9/21,��,253,,,
2022/9/22,��,256,,,
2022/9/23,��,314,,,
2022/9/24,�y,342,,,
2022/9/25,��,308,,,
2022/9/26,��,235,,,
2022/9/27,��,327,,,
2022/9/28,��,280,,,
2022/9/29,��,266,,,
2022/9/30,��,241,,,
2022/10/1,�y,271,,,
2022/10/2,��,283,,,
2022/10/3,��,295,,,
2022/10/4,��,192,,,
2022/10/5,��,201,,,
2022/10/6,��,163,,,
2022/10/7,��,164,,,
2022/10/8,�y,182,,,
2022/10/9,��,275,,,
2022/10/10,��,301,,,
2022/10/11,��,271,,,
2022/10/12,��,230,,,
2022/10/13,��,229,,,
2022/10/14,��,211,,,
2022/10/15,�y,280,,,
2022/10/16,��,284,,,
2022/10/17,��,315,,,
2022/10/18,��,220,,,
2022/10/19,��,200,,,
2022/10/20,��,205,,,
2022/10/21,��,205,,,
2022/10/22,�y,257,,,
2022/10/23,��,266,,,
2022/10/24,��,263,,,
2022/10/25,��,234,,,
2022/10/26,��,201,,,
2022/10/27,��,216,,,
2022/10/28,��,235,,,
2022/10/29,�y,320,,,
2022/10/30,��,327,,,
2022/10/31,��,331,,,
2022/11/1,��,308,,,
2022/11/2,��,355,,,
2022/11/3,��,397,,,
2022/11/4,��,355,,,
2022/11/5,�y,383,,,
2022/11/6,��,401,,,
2022/11/7,��,386,,,
2022/11/8,��,345,,,
2022/11/9,��,354,,,
2022/11/10,��,370,,,
2022/11/11,��,371,,,
2022/11/12,�y,484,,,
2022/11/13,��,436,,,
2022/11/14,��,510,,,
2022/11/15,��,402,,,
2022/11/16,��,379,,,
2022/11/17,��,373,,,
2022/11/18,��,381,,,
2022/11/19,�y,512,,,
2022/11/20,��,529,,,
2022/11/21,��,591,,,
2022/11/22,��,564,,,
2022/11/23,��,601,,,
2022/11/24,��,593,,,
2022/11/25,��,485,,,
2022/11/26,�y,520,,,
2022/11/27,��,507,,,
2022/11/28,��,577,,,
2022/11/29,��,477,,,
2022/11/30,��,524,,,
2022/12/1,��,465,,,
2022/12/2,��,428,,,
2022/12/3,�y,491,,,
2022/12/4,��,501,,,
2022/12/5,��,593,,,
2022/12/6,��,511,,,
2022/12/7,��,574,,,
2022/12/8,��,538,,,
2022/12/9,��,512,,,
2022/12/10,�y,572,,,
2022/12/11,��,525,,,
2022/12/12,��,627,,,
2022/12/13,��,594,,,
2022/12/14,��,569,,,
2022/12/15,��,522,,,
2022/12/16,��,483,,,
2022/12/17,�y,526,,,
2022/12/18,��,522,,,
2022/12/19,��,636,,,
2022/12/20,��,513,,,
2022/12/21,��,615,,,
2022/12/22,��,603,,,
2022/12/23,��,451,,,
2022/12/24,�y,527,,,
2022/12/25,��,523,,,
2022/12/26,��,601,,,
2022/12/27,��,551,,,
2022/12/28,��,499,,,
2022/12/29,��,637,,,
2022/12/30,��,632,,,
2022/12/31,�y,596,,,
2023/1/1,��,432,,,
2023/1/2,��,685,,,
2023/1/3,��,782,,,
2023/1/4,��,662,,,
2023/1/5,��,610,,,
2023/1/6,��,669,,,
2023/1/7,�y,609,,,
2023/1/8,��,620,,,
2023/1/9,��,667,,,
2023/1/10,��,604,,,
2023/1/11,��,559,,,
2023/1/12,��,549,,,
2023/1/13,��,416,,,
2023/1/14,�y,495,,,
2023/1/15,��,386,,,
2023/1/16,��,460,,,
2023/1/17,��,313,,,
2023/1/18,��,338,,,
2023/1/19,��,315,,,
2023/1/20,��,304,,,
2023/1/21,�y,298,,,
2023/1/22,��,260,,,
2023/1/23,��,338,,,
2023/1/24,��,222,,,
2023/1/25,��,226,,,
2023/1/26,��,191,,,
2023/1/27,��,152,,,
2023/1/28,�y,185,,,
2023/1/29,��,168,,,
2023/1/30,��,212,,,
2023/1/31,��,160,,,
2023/2/1,��,167,,,
2023/2/2,��,135,,,
2023/2/3,��,104,,,
2023/2/4,�y,139,,,
2023/2/5,��,152,,,
2023/2/6,��,150,,,
2023/2/7,��,102,,,
2023/2/8,��,119,,,
2023/2/9,��,123,,,
2023/2/10,��,94,,,
2023/2/11,�y,139,,,
2023/2/12,��,128,,,
2023/2/13,��,159,,,
2023/2/14,��,88,,,
2023/2/15,��,82,,,
2023/2/16,��,90,,,
2023/2/17,��,78,,,
2023/2/18,�y,74,,,
2023/2/19,��,107,,,
2023/2/20,��,99,,,
2023/2/21,��,68,,,
2023/2/22,��,99,,,
2023/2/23,��,66,,,
2023/2/24,��,72,,,
2023/2/25,�y,74,,,
2023/2/26,��,60,,,
2023/2/27,��,59,,,
2023/2/28,��,65,,,
2023/3/1,��,91,,,
2023/3/2,��,76,,,
2023/3/3,��,82,,,
2023/3/4,�y,82,,,
2023/3/5,��,88,,,
2023/3/6,��,98,,,
2023/3/7,��,74,,,
2023/3/8,��,74,,,
2023/3/9,��,67,,,
2023/3/10,��,52,,,
2023/3/11,�y,93,,,
2023/3/12,��,52,,,
2023/3/13,��,79,,,
2023/3/14,��,47,,,
2023/3/15,��,38,,,
2023/3/16,��,62,,,
2023/3/17,��,45,,,
2023/3/18,�y,82,,,
2023/3/19,��,51,,,
2023/3/20,��,57,,,
2023/3/21,��,64,,,
2023/3/22,��,65,,,
2023/3/23,��,55,,,
2023/3/24,��,51,,,
2023/3/25,�y,59,,,
2023/3/26,��,51,,,
2023/3/27,��,65,,,
2023/3/28,��,44,,,
2023/3/29,��,47,,,
